Simultaneous Nadir Overpasses (SNOs) Predictions

Prediction of SNOs near US between AQUA and NPP Satellite Orbit:

Table of predicted SNOs near US for the next 10.0 days since TLE Epoch: 8/11/2017
Index Date (AQUA) Time (AQUA) AQUA Lat,Lon Date (NPP) Time (NPP) NPP Lat,Lon Distance(km) Time Diff (sec)
1 08/12/2017 08:34:45 20.05,-101.86 08/12/2017 08:26:25 18.43,-102.36 187.74 500
2 08/12/2017 10:11:34 27.53,-124.78 08/12/2017 10:05:18 27.63,-125.41 63.10 376
3 08/15/2017 07:18:28 49.88, -75.99 08/15/2017 07:20:15 50.30, -78.12 159.04 107
4 08/15/2017 08:57:21 49.89,-100.71 08/15/2017 09:01:43 50.41,-103.45 203.56 262
5 08/17/2017 18:16:37 49.99, -80.17 08/17/2017 18:10:34 49.74, -81.71 113.83 363
6 08/17/2017 19:55:30 49.99,-104.89 08/17/2017 19:52:02 49.62,-107.03 159.05 208
7 08/17/2017 21:30:41 36.75,-125.00 08/17/2017 21:29:42 36.30,-127.54 232.85 59
8 08/20/2017 09:23:16 23.39,-113.44 08/20/2017 09:15:52 23.44,-113.83 40.72 444




NCC Satellite Simultaneous Nadir Overpasses (SNOs) Prediction Service
